Location: Bernay
(48.6766°N, 2.9386°E)
Time: 07:45:09
(UTC+00:00)

Cosmos 2360 - Pass Details

Date: 12 January 2026
Orbit: 847 x 855 km, 70.7° (Epoch: 14 February)

Event Time Altitude Azimuth Distance (km) Brightness Sun altitude
Rises 19:16:06 0° 330° (NNW) 3,434 7.7 -29.0°
Reaches altitude 10° 19:18:34 10° 329° (NNW) 2,493 7.0 -29.4°
Enters shadow 19:23:41 70° 301° (WNW) 910 4.4 -30.2°
